N1SD KLAX-

Flight info

Callsign N1SD
Flight time N/A
Altitude
Route
Aircraft EC14/L-VGD/C

Departure

Time 2026-04-22 20:45
Airport Los Angeles International Airport (KLAX)

Arrival

Time N/A
Airport -
Time Latitude Longitude Altitude Speed Heading
2026-04-22 20:35 33.93410 -118.39576 104 ft 0 kts
2026-04-22 20:41 33.93411 -118.39576 107 ft 2 kts 358°
2026-04-22 20:41 33.93437 -118.39619 126 ft 9 kts 247°
2026-04-22 20:42 33.93412 -118.39889 244 ft 52 kts 258°
2026-04-22 20:42 33.93333 -118.40514 307 ft 98 kts 255°
2026-04-22 20:42 33.93231 -118.41403 415 ft 114 kts 256°
2026-04-22 20:42 33.93125 -118.42380 520 ft 120 kts 254°
2026-04-22 20:43 33.93108 -118.43382 312 ft 127 kts 285°
2026-04-22 20:43 33.93870 -118.43928 249 ft 127 kts 326°
2026-04-22 20:43 33.94640 -118.44384 266 ft 119 kts 323°
2026-04-22 20:43 33.95375 -118.44808 313 ft 111 kts 326°
2026-04-22 20:44 33.96013 -118.45289 280 ft 104 kts 316°
2026-04-22 20:44 33.96576 -118.45731 388 ft 88 kts 316°
2026-04-22 20:44 33.97167 -118.45700 472 ft 70 kts 357°
2026-04-22 20:44 33.97646 -118.45581 561 ft 75 kts 14°
2026-04-22 20:45 33.98012 -118.45391 569 ft 100 kts 25°
2026-04-22 20:45 33.98956 -118.44711 623 ft 128 kts 28°
2026-04-22 20:45 33.99464 -118.44307 723 ft 131 kts 28°
2026-04-22 20:45 34.00215 -118.43734 877 ft 130 kts 21°
2026-04-22 20:46 34.01679 -118.42542 1303 ft 140 kts 40°
2026-04-22 20:46 34.02261 -118.41500 1173 ft 159 kts 65°
2026-04-22 20:46 34.02533 -118.40251 1311 ft 145 kts 76°
2026-04-22 20:47 34.02754 -118.39091 1524 ft 141 kts 75°
2026-04-22 20:47 34.03048 -118.37971 1531 ft 146 kts 68°
2026-04-22 20:47 34.03354 -118.36778 1314 ft 149 kts 69°
2026-04-22 20:47 34.03499 -118.35551 1142 ft 144 kts 85°
2026-04-22 20:48 34.03532 -118.34418 1261 ft 127 kts 88°
2026-04-22 20:48 34.03544 -118.33375 1276 ft 129 kts 89°
2026-04-22 20:48 34.03556 -118.32304 1319 ft 124 kts 87°
2026-04-22 20:48 34.03638 -118.31278 1413 ft 123 kts 79°
2026-04-22 20:49 34.03737 -118.30182 1280 ft 138 kts 77°
2026-04-22 20:49 34.03786 -118.29054 1117 ft 130 kts 82°
2026-04-22 20:49 34.03904 -118.28094 1216 ft 108 kts 40°
2026-04-22 20:49 34.04241 -118.27234 1193 ft 122 kts 26°
2026-04-22 20:50 34.04838 -118.26509 1085 ft 122 kts 43°
2026-04-22 20:50 34.05486 -118.26041 987 ft 98 kts
2026-04-22 20:50 34.05884 -118.25941 876 ft 33 kts 119°
2026-04-22 20:50 34.05769 -118.25862 787 ft 18 kts 138°
2026-04-22 20:51 34.05699 -118.25820 732 ft 7 kts 135°
2026-04-22 20:51 34.05676 -118.25795 715 ft 6 kts 117°
2026-04-22 20:51 34.05652 -118.25769 720 ft 5 kts 142°
2026-04-22 20:51 34.05648 -118.25763 705 ft 0 kts 125°
2026-04-22 20:52 34.05648 -118.25764 702 ft 0 kts 109°
2026-04-22 20:53 34.05651 -118.25762 704 ft 0 kts 112°
2026-04-22 20:53 34.05656 -118.25751 707 ft 4 kts 190°
2026-04-22 20:53 34.05635 -118.25822 667 ft 36 kts 231°
2026-04-22 20:54 34.05491 -118.26147 978 ft 44 kts 216°
2026-04-22 20:54 34.05291 -118.26266 970 ft 13 kts 161°
2026-04-22 20:54 34.05231 -118.26259 795 ft 8 kts 158°
2026-04-22 20:54 34.05192 -118.26241 661 ft 6 kts 140°
2026-04-22 20:55 34.05148 -118.26226 597 ft 0 kts 88°